This demonstration page uses our WeatherBlox Daily Observations layout. Learn more.

Left ArrowRight Arrow

40.92945, -100.16068

Hourly Observations for November 12, 2021

Temp ( °F °C ) Dew Point ( °F °C ) Humidity (%) Winds ( mph kmh ) Pressure ( in mb ) Visibility ( mi km ) Precip ( " mm )
12:15 am 00:15 Clear 37 2.5 16 -8.7 44 44 NW 31 50 30.08 1019 10 16 0.00 0.00
12:35 am 00:35 Clear 36 2.3 16 -8.9 44 44 WNW 23 37 30.09 1019 10 16 0.00 0.00
12:55 am 00:55 Clear 35 1.7 17 -8.5 47 47 NW 22 35 30.11 1020 10 16 0.00 0.00
1:15 am 01:15 Clear 35 1.7 17 -8.2 48 48 NW 25 41 30.11 1020 10 16 0.00 0.00
1:35 am 01:35 Clear 35 1.7 17 -8.1 49 49 NW 23 37 30.11 1020 10 16 0.00 0.00
1:55 am 01:55 Clear 34 1.3 18 -8 50 50 NW 25 41 30.12 1020 10 16 0.00 0.00
2:15 am 02:15 Clear 35 1.5 18 -8 50 50 NW 31 50 30.13 1020 10 16 0.00 0.00
2:35 am 02:35 Clear 34 1.1 19 -7.5 53 53 NW 26 43 30.14 1021 10 16 0.00 0.00
2:55 am 02:55 Clear 33 0.5 19 -7.3 56 56 NNW 23 37 30.15 1021 10 16 0.00 0.00
3:15 am 03:15 Clear 32 0.1 19 -7.5 57 57 NNW 24 39 30.16 1021 10 16 0.00 0.00
3:35 am 03:35 Clear 32 0 19 -7.5 57 57 NW 25 41 30.17 1022 10 16 0.00 0.00
3:55 am 03:55 Clear 31 -0.3 19 -7.5 59 59 NW 24 39 30.17 1022 10 16 0.00 0.00
4:15 am 04:15 Clear 31 -0.5 19 -7.5 60 60 NW 23 37 30.17 1022 10 16 0.00 0.00
4:35 am 04:35 Clear 31 -0.8 19 -7.5 61 61 NW 18 30 30.17 1022 10 16 0.00 0.00
4:55 am 04:55 Clear 30 -1 19 -7.5 62 62 NW 21 33 30.18 1022 10 16 0.00 0.00
5:15 am 05:15 Clear 31 -0.7 18 -7.6 60 60 NW 23 37 30.18 1022 10 16 0.00 0.00
5:35 am 05:35 Clear 30 -0.9 19 -7.5 61 61 NW 30 48 30.20 1023 10 16 0.00 0.00
5:55 am 05:55 Clear 30 -1.1 19 -7.5 62 62 NW 26 43 30.20 1023 10 16 0.00 0.00
6:15 am 06:15 Clear 30 -1.2 19 -7.3 64 64 NW 24 39 30.20 1023 10 16 0.00 0.00
6:35 am 06:35 Clear 30 -1.2 19 -7.2 64 64 NW 26 43 30.21 1023 10 16 0.00 0.00
6:55 am 06:55 Clear 30 -1.3 19 -7.3 64 64 NW 25 41 30.22 1023 10 16 0.00 0.00
7:15 am 07:15 Clear 29 -1.5 19 -7.2 66 66 NW 23 37 30.22 1023 10 16 0.00 0.00
7:35 am 07:35 Sunny 29 -1.5 19 -7.2 66 66 NW 26 43 30.23 1024 10 16 0.00 0.00
7:55 am 07:55 Sunny 30 -1.3 19 -7.1 65 65 NW 23 37 30.24 1024 10 16 0.00 0.00
8:15 am 08:15 Mostly Cloudy 30 -1 19 -7 64 64 NW 26 43 30.25 1024 10 16 0.00 0.00
8:35 am 08:35 Cloudy 31 -0.7 19 -7 63 63 NW 24 39 30.25 1025 10 16 0.00 0.00
8:55 am 08:55 Cloudy 32 -0.2 20 -6.8 61 61 NW 25 41 30.26 1025 10 16 0.00 0.00
9:15 am 09:15 Mostly Cloudy 32 0 20 -6.9 60 60 NW 25 41 30.26 1025 10 16 0.00 0.00
9:35 am 09:35 Mostly Cloudy 33 0.6 20 -6.6 59 59 NW 24 39 30.26 1025 10 16 0.00 0.00
9:55 am 09:55 Cloudy 34 1 20 -6.5 58 58 NW 24 39 30.26 1025 10 16 0.00 0.00
10:15 am 10:15 Cloudy 35 1.5 20 -6.7 55 55 NW 31 50 30.26 1025 10 16 0.00 0.00
10:35 am 10:35 Cloudy 35 1.5 19 -7.1 53 53 NW 35 56 30.27 1025 10 16 0.00 0.00
10:55 am 10:55 Cloudy 36 2.3 19 -7.1 50 50 NNW 31 50 30.26 1025 10 16 0.00 0.00
11:15 am 11:15 Mostly Cloudy 37 3 19 -7.1 48 48 NNW 30 48 30.26 1025 10 16 0.00 0.00
11:35 am 11:35 Mostly Cloudy 38 3.6 19 -7.2 46 46 NNW 29 46 30.25 1024 10 16 0.00 0.00
11:55 am 11:55 Mostly Cloudy 39 3.8 19 -7.1 45 45 NW 30 48 30.25 1024 10 16 0.00 0.00
12:15 pm 12:15 Mostly Cloudy 39 3.7 19 -7.1 46 46 NW 35 56 30.24 1024 10 16 0.00 0.00
12:35 pm 12:35 Cloudy 40 4.5 19 -7.2 43 43 NNW 32 52 30.23 1024 10 16 0.00 0.00
12:55 pm 12:55 Partly Cloudy 40 4.5 19 -7.5 42 42 NNW 33 54 30.23 1024 10 16 0.00 0.00
1:15 pm 13:15 Sunny 40 4.7 18 -7.8 40 40 NNW 31 50 30.23 1024 10 16 0.00 0.00
1:35 pm 13:35 Sunny 42 5.3 18 -7.6 39 39 NNW 32 52 30.23 1024 10 16 0.00 0.00
1:55 pm 13:55 Partly Cloudy 42 5.4 18 -7.8 38 38 NNW 25 41 30.22 1024 10 16 0.00 0.00
2:15 pm 14:15 Sunny 42 5.7 19 -7.4 39 39 NNW 29 46 30.22 1023 10 16 0.00 0.00
2:35 pm 14:35 Sunny 42 5.3 18 -7.8 39 39 NNW 28 44 30.23 1024 10 16 0.00 0.00
2:55 pm 14:55 Sunny 42 5.5 18 -7.8 38 38 NNW 24 39 30.23 1024 10 16 0.00 0.00
3:15 pm 15:15 Sunny 42 5.5 18 -7.8 38 38 NNW 24 39 30.24 1024 10 16 0.00 0.00
3:35 pm 15:35 Sunny 42 5.5 18 -7.9 38 38 NNW 20 31 30.24 1024 10 16 0.00 0.00
3:55 pm 15:55 Sunny 42 5.5 17 -8.1 37 37 NNW 25 41 30.24 1024 10 16 0.00 0.00
4:15 pm 16:15 Sunny 42 5.3 17 -8.6 36 36 NNW 23 37 30.25 1024 10 16 0.00 0.00
4:35 pm 16:35 Sunny 41 4.9 16 -8.9 36 36 NNW 17 28 30.25 1024 10 16 0.00 0.00
4:55 pm 16:55 Sunny 39 3.7 17 -8.6 41 41 N 12 19 30.26 1025 10 16 0.00 0.00
5:15 pm 17:15 Sunny 37 2.7 16 -8.7 43 43 NNW 8 13 30.27 1025 10 16 0.00 0.00
5:35 pm 17:35 Clear 34 0.9 16 -8.8 49 49 NNW 6 9 30.29 1026 10 16 0.00 0.00
5:55 pm 17:55 Clear 33 0.4 16 -8.8 50 50 NNW 7 11 30.29 1026 10 16 0.00 0.00
6:15 pm 18:15 Clear 30 -1.3 16 -9 56 56 NW 10 17 30.31 1026 10 16 0.00 0.00
6:35 pm 18:35 Clear 28 -2.1 15 -9.4 58 58 WNW 5 7 30.33 1027 10 16 0.00 0.00
6:55 pm 18:55 Clear 27 -2.7 15 -9.5 60 60 W 7 11 30.35 1028 10 16 0.00 0.00
7:15 pm 19:15 Clear 24 -4.2 16 -9 70 70 WNW 9 15 30.35 1028 10 16 0.00 0.00
7:35 pm 19:35 Clear 26 -3.6 15 -9.3 65 65 W 3 6 30.35 1028 10 16 0.00 0.00
7:55 pm 19:55 Clear 27 -2.6 15 -9.5 59 59 W 7 11 30.34 1028 10 16 0.00 0.00
8:15 pm 20:15 Clear 24 -4.3 15 -9.6 67 67 WNW 9 15 30.37 1028 10 16 0.00 0.00
8:35 pm 20:35 Clear 24 -4.4 15 -9.5 68 68 W 6 9 30.37 1029 10 16 0.00 0.00
8:55 pm 20:55 Clear 24 -4.4 15 -9.5 68 68 WNW 8 13 30.37 1029 10 16 0.00 0.00
9:15 pm 21:15 Clear 23 -4.8 14 -9.8 68 68 WNW 6 9 30.37 1028 10 16 0.00 0.00
9:35 pm 21:35 Clear 21 -6.1 13 -10.3 72 72 NW 7 11 30.39 1029 10 16 0.00 0.00
9:55 pm 21:55 Clear 20 -6.8 13 -10.5 75 75 WNW 3 6 30.39 1029 10 16 0.00 0.00
10:15 pm 22:15 Clear 21 -6.1 14 -10 74 74 W 5 7 30.37 1028 10 16 0.00 0.00
10:35 pm 22:35 Clear 20 -6.6 14 -10.2 76 76 W 3 6 30.37 1028 10 16 0.00 0.00
10:55 pm 22:55 Clear 20 -6.4 13 -10.4 74 74 WNW 5 7 30.36 1028 10 16 0.00 0.00
11:15 pm 23:15 Clear 19 -7.1 13 -10.5 77 77 W 6 9 30.37 1028 10 16 0.00 0.00
11:35 pm 23:35 Clear 18 -7.6 13 -10.5 80 80 Calm 30.38 1029 10 16 0.00 0.00
11:55 pm 23:55 Clear 19 -7 14 -10 79 79 W 6 9 30.38 1029 10 16 0.00 0.00

Powered by AerisWeather